Weather History for KSAZ - August, 2013

Change the Weather History Date:

Saturday, August 17, 2013

  Actual Average Record
Temperature  
Mean Temperature 66 °F -  
Max Temperature 80 °F 75 °F 89 °F (2003)
Min Temperature 53 °F 54 °F 39 °F (2012)
Cooling Degree Days 2    
Growing Degree Days 16 (Base 50)    
Moisture  
Dew Point 55 °F    
Average Humidity 69    
Maximum Humidity 100    
Minimum Humidity 42    
Precipitation  
Precipitation 0.00 in - - ()
Sea Level Pressure  
Sea Level Pressure 30.12 in    
Wind  
Wind Speed 8 mph (South)    
Max Wind Speed 18 mph    
Max Gust Speed 26 mph    
Visibility 10 miles    
Events      
Averages and records for this station are not official NWS values.
T = Trace of Precipitation, MM = Missing Value Source: NWS Daily Summary

Daily Weather History Graph

Daily Weather History Graph

Search for Another Location

Airport or City:

Trip Planner

Search our weather history database for the weather conditions in past years. The results will help you decide how hot, cold, wet, or windy it might be!

Date:

Astronomy

Aug. 17, 2013 Rise Set
Actual Time 6:20 AM CDT 8:24 PM CDT
Civil Twilight 5:48 AM CDT 8:57 PM CDT
Nautical Twilight 5:07 AM CDT 9:37 PM CDT
Astronomical Twilight 4:22 AM CDT 10:21 PM CDT
Moon 5:46 PM CDT (8/17) 2:18 AM CDT (8/17)
Length of Visible Light 15h 09m
Length of Day
14h 04m
Waxing Gibbous, 84% of the Moon is Illuminated
Aug 17
Waxing Gibbous
Aug 20
Full
Aug 28
Last Quarter
Sep 5
New
Sep 12
First Quarter

Hourly Weather History & Observations

Time (CDT) Temp. Heat Index Dew Point Humidity Pressure Visibility Wind Dir Wind Speed Gust Speed Precip Events Conditions
12:13 AM 55.4 °F - 51.8 °F 88% 30.16 in 10.0 mi South 4.6 mph - N/A   Clear
12:33 AM 55.4 °F - 51.8 °F 88% 30.16 in 10.0 mi South 4.6 mph - N/A   Clear
12:54 AM 55.4 °F - 51.8 °F 88% 30.16 in 10.0 mi South 4.6 mph - N/A   Clear
1:13 AM 55.4 °F - 51.8 °F 88% 30.16 in 10.0 mi South 4.6 mph - N/A   Clear
1:33 AM 53.6 °F - 51.8 °F 94% 30.15 in 10.0 mi South 4.6 mph - N/A   Clear
1:53 AM 53.6 °F - 51.8 °F 94% 30.15 in 10.0 mi South 3.5 mph - N/A   Clear
2:13 AM 53.6 °F - 51.8 °F 94% 30.15 in 10.0 mi South 3.5 mph - N/A   Clear
2:34 AM 53.6 °F - 51.8 °F 94% 30.15 in 10.0 mi South 4.6 mph - N/A   Clear
2:53 AM 53.6 °F - 51.8 °F 94% 30.15 in 10.0 mi South 3.5 mph - N/A   Clear
3:13 AM 53.6 °F - 51.8 °F 94% 30.15 in 10.0 mi South 4.6 mph - N/A   Clear
3:34 AM 53.6 °F - 51.8 °F 94% 30.15 in 10.0 mi South 4.6 mph - N/A   Clear
3:53 AM 53.6 °F - 51.8 °F 94% 30.15 in 10.0 mi South 4.6 mph - N/A   Clear
4:13 AM 53.6 °F - 51.8 °F 94% 30.15 in 10.0 mi South 4.6 mph - N/A   Clear
4:33 AM 53.6 °F - 51.8 °F 94% 30.15 in 10.0 mi South 4.6 mph - N/A   Clear
4:53 AM 53.6 °F - 51.8 °F 94% 30.15 in 10.0 mi South 3.5 mph - N/A   Clear
5:14 AM 53.6 °F - 51.8 °F 94% 30.15 in 10.0 mi South 5.8 mph - N/A   Clear
5:33 AM 53.6 °F - 51.8 °F 94% 30.15 in 10.0 mi South 5.8 mph - N/A   Clear
5:53 AM 53.6 °F - 51.8 °F 94% 30.15 in 7.0 mi South 4.6 mph - N/A   Clear
6:14 AM 53.6 °F - 51.8 °F 94% 30.15 in 7.0 mi South 4.6 mph - N/A   Clear
6:33 AM 53.6 °F - 51.8 °F 94% 30.15 in 7.0 mi SSE 4.6 mph - N/A   Clear
6:53 AM 53.6 °F - 53.6 °F 100% 30.15 in 7.0 mi South 4.6 mph - N/A   Clear
7:14 AM 55.4 °F - 53.6 °F 94% 30.15 in 10.0 mi South 4.6 mph - N/A   Clear
7:33 AM 55.4 °F - 53.6 °F 94% 30.15 in 10.0 mi South 5.8 mph - N/A   Clear
7:53 AM 57.2 °F - 55.4 °F 94% 30.15 in 10.0 mi South 5.8 mph - N/A   Clear
8:13 AM 59.0 °F - 55.4 °F 88% 30.15 in 10.0 mi South 6.9 mph - N/A   Clear
8:33 AM 60.8 °F - 55.4 °F 82% 30.15 in 10.0 mi South 8.1 mph - N/A   Clear
8:53 AM 64.4 °F - 55.4 °F 73% 30.15 in 10.0 mi South 8.1 mph - N/A   Clear
9:13 AM 66.2 °F - 57.2 °F 73% 30.15 in 10.0 mi South 10.4 mph - N/A   Clear
9:33 AM 66.2 °F - 57.2 °F 73% 30.15 in 10.0 mi South 9.2 mph - N/A   Clear
9:53 AM 69.8 °F - 57.2 °F 64% 30.15 in 10.0 mi South 13.8 mph - N/A   Clear
10:13 AM 69.8 °F - 57.2 °F 64% 30.14 in 10.0 mi SSW 11.5 mph - N/A   Scattered Clouds
10:33 AM 71.6 °F - 57.2 °F 60% 30.15 in 10.0 mi South 13.8 mph 18.4 mph N/A   Scattered Clouds
10:53 AM 71.6 °F - 57.2 °F 60% 30.14 in 10.0 mi South 10.4 mph 16.1 mph N/A   Scattered Clouds
11:13 AM 71.6 °F - 57.2 °F 60% 30.15 in 10.0 mi SSW 18.4 mph - N/A   Scattered Clouds
11:33 AM 73.4 °F - 57.2 °F 57% 30.14 in 10.0 mi SSW 10.4 mph 20.7 mph N/A   Scattered Clouds
11:53 AM 75.2 °F - 57.2 °F 53% 30.14 in 10.0 mi South 16.1 mph 21.9 mph N/A   Scattered Clouds
12:14 PM 75.2 °F - 55.4 °F 50% 30.14 in 10.0 mi SSW 17.3 mph 21.9 mph N/A   Scattered Clouds
12:33 PM 75.2 °F - 55.4 °F 50% 30.14 in 10.0 mi South 18.4 mph 23.0 mph N/A   Scattered Clouds
12:54 PM 77.0 °F - 55.4 °F 47% 30.13 in 10.0 mi South 16.1 mph 26.5 mph N/A   Scattered Clouds
1:13 PM 77.0 °F - 55.4 °F 47% 30.12 in 10.0 mi South 15.0 mph 23.0 mph N/A   Scattered Clouds
1:33 PM 77.0 °F - 55.4 °F 47% 30.11 in 10.0 mi SSW 16.1 mph 20.7 mph N/A   Scattered Clouds
1:53 PM 78.8 °F - 57.2 °F 47% 30.11 in 10.0 mi SSW 11.5 mph 18.4 mph N/A   Scattered Clouds
2:13 PM 80.6 °F 80.5 °F 55.4 °F 42% 30.10 in 10.0 mi SSW 15.0 mph 20.7 mph N/A   Scattered Clouds
2:33 PM 78.8 °F - 55.4 °F 44% 30.10 in 10.0 mi SSW 13.8 mph 20.7 mph N/A   Scattered Clouds
2:54 PM 80.6 °F 80.5 °F 55.4 °F 42% 30.09 in 10.0 mi SW 13.8 mph 19.6 mph N/A   Scattered Clouds
3:13 PM 78.8 °F - 55.4 °F 44% 30.09 in 10.0 mi South 13.8 mph 20.7 mph N/A   Scattered Clouds
3:33 PM 80.6 °F 80.5 °F 55.4 °F 42% 30.09 in 10.0 mi SSW 15.0 mph 21.9 mph N/A   Scattered Clouds
3:53 PM 80.6 °F 80.5 °F 55.4 °F 42% 30.08 in 10.0 mi South 16.1 mph - N/A   Scattered Clouds
4:13 PM 80.6 °F 80.5 °F 55.4 °F 42% 30.08 in 10.0 mi South 13.8 mph 19.6 mph N/A   Scattered Clouds
4:34 PM 78.8 °F - 55.4 °F 44% 30.08 in 10.0 mi South 12.7 mph 19.6 mph N/A   Scattered Clouds
4:51 PM 80.6 °F 80.5 °F 55.4 °F 42% 30.07 in 10.0 mi South 15.0 mph 19.6 mph N/A   Scattered Clouds
5:13 PM 80.6 °F 80.5 °F 55.4 °F 42% 30.07 in 10.0 mi South 15.0 mph 21.9 mph N/A   Mostly Cloudy
5:33 PM 80.6 °F 80.5 °F 55.4 °F 42% 30.07 in 10.0 mi SSW 12.7 mph 17.3 mph N/A   Mostly Cloudy
5:53 PM 78.8 °F - 55.4 °F 44% 30.07 in 10.0 mi South 16.1 mph 19.6 mph N/A   Scattered Clouds
6:13 PM 78.8 °F - 55.4 °F 44% 30.08 in 10.0 mi SSW 10.4 mph - N/A   Clear
6:33 PM 77.0 °F - 57.2 °F 50% 30.07 in 10.0 mi SSW 11.5 mph 17.3 mph N/A   Scattered Clouds
6:53 PM 77.0 °F - 57.2 °F 50% 30.07 in 10.0 mi South 10.4 mph - N/A   Clear
7:13 PM 75.2 °F - 57.2 °F 53% 30.07 in 10.0 mi South 9.2 mph - N/A   Clear
7:34 PM 75.2 °F - 57.2 °F 53% 30.06 in 10.0 mi South 8.1 mph - N/A   Clear
7:53 PM 73.4 °F - 57.2 °F 57% 30.06 in 10.0 mi South 5.8 mph - N/A   Clear
8:13 PM 71.6 °F - 57.2 °F 60% 30.06 in 10.0 mi South 8.1 mph - N/A   Clear
8:34 PM 69.8 °F - 57.2 °F 64% 30.06 in 10.0 mi South 6.9 mph - N/A   Clear
8:53 PM 69.8 °F - 57.2 °F 64% 30.06 in 10.0 mi South 6.9 mph - N/A   Clear
9:13 PM 69.8 °F - 57.2 °F 64% 30.06 in 10.0 mi SSE 6.9 mph - N/A   Clear
9:33 PM 68.0 °F - 57.2 °F 68% 30.06 in 10.0 mi South 5.8 mph - N/A   Clear
9:53 PM 66.2 °F - 57.2 °F 73% 30.06 in 10.0 mi South 8.1 mph - N/A   Clear
10:14 PM 66.2 °F - 57.2 °F 73% 30.06 in 10.0 mi South 6.9 mph - N/A   Clear
10:33 PM 66.2 °F - 57.2 °F 73% 30.06 in 10.0 mi South 9.2 mph - N/A   Clear
10:53 PM 66.2 °F - 57.2 °F 73% 30.06 in 10.0 mi South 8.1 mph - N/A   Clear
11:14 PM 64.4 °F - 57.2 °F 77% 30.06 in 10.0 mi South 6.9 mph - N/A   Clear
11:33 PM 64.4 °F - 57.2 °F 77% 30.07 in 10.0 mi South 6.9 mph - N/A   Clear
11:53 PM 62.6 °F - 57.2 °F 82% 30.07 in 10.0 mi South 4.6 mph - N/A   Clear